GFSMW_700_spd_090.txt.gz
Wind_Speed
14 12 13 17 14 10 12 17 8 12 6 13 19 18 27 29 34 40 40 39 45 44 43 36 36 35 32 24 20 18 19 17 15 13 13 14 14 15 15 15 15 16 18
12 10 10 12 12 3 10 9 9 12 12 9 15 13 10 23 29 40 38 43 49 52 49 46 39 35 31 29 25 22 19 21 17 15 16 17 19 18 17 20 20 20 21
11 8 7 7 8 6 5 7 10 13 11 16 15 17 18 18 27 32 33 42 44 48 47 37 36 37 32 28 23 23 20 21 20 18 18 20 22 24 23 23 23 24 26
12 6 5 4 4 5 4 2 10 14 15 15 16 15 13 18 20 25 30 30 34 42 43 45 40 36 38 32 28 24 23 23 23 23 22 23 24 27 28 30 27 29 28
13 8 3 3 2 2 5 6 4 11 18 21 21 17 15 19 17 20 27 30 39 45 45 48 45 45 40 31 31 31 30 28 27 28 26 26 29 32 34 34 34 32 30
15 10 6 3 1 2 4 5 8 10 12 14 15 18 21 22 17 20 28 28 29 31 31 37 45 44 36 35 32 33 33 33 30 30 32 32 31 34 37 39 40 41 39
20 13 9 7 5 4 5 6 7 8 11 13 12 13 15 23 19 20 23 27 30 31 30 31 35 38 38 37 36 38 39 38 36 35 37 37 37 38 40 45 42 43 42
23 17 11 10 9 7 6 7 9 10 9 10 13 14 16 16 19 20 22 23 26 28 27 36 37 35 36 37 38 39 42 42 43 42 43 45 44 43 44 49 52 54 48
18 17 14 9 10 9 8 8 7 9 11 11 10 10 12 14 14 17 19 18 19 22 23 26 26 29 32 35 39 41 43 46 46 45 48 50 48 49 50 53 55 45 54
20 20 17 12 11 11 11 11 11 11 11 12 12 12 12 12 13 13 13 13 15 17 20 23 26 30 32 33 37 39 41 45 47 50 52 54 54 51 54 50 48 48 57
19 20 23 22 19 15 16 14 14 15 15 16 16 16 15 15 16 16 16 16 18 20 22 24 27 29 31 34 38 41 44 50 54 60 66 47 46 48 55 42 40 39 31
20 18 19 27 25 21 20 19 19 17 16 19 20 19 19 19 19 18 18 19 20 22 23 25 28 30 32 35 39 42 49 54 51 37 29 34 40 38 38 39 42 37 40
17 16 12 17 25 20 19 21 23 23 24 23 22 24 25 25 24 23 22 22 21 21 25 26 28 30 33 37 40 43 49 50 43 35 31 32 35 40 36 36 41 41 51
19 19 18 18 19 20 18 18 18 20 21 25 28 27 25 25 28 27 24 23 21 24 29 30 34 36 39 41 39 38 36 37 37 33 36 38 37 42 40 41 43 46 45
22 23 21 20 17 18 17 19 16 16 18 21 23 23 24 25 27 29 25 28 31 31 30 35 37 36 40 39 39 37 36 36 36 36 38 40 40 43 44 45 43 47 46
14 20 26 27 24 21 19 19 21 17 17 17 20 20 20 21 21 24 26 30 33 37 37 36 36 36 38 38 38 39 40 39 41 42 41 44 43 46 45 45 48 43 45
26 25 21 22 26 24 27 25 24 23 21 19 20 19 19 21 23 25 25 26 30 32 32 33 34 36 37 37 38 39 41 43 43 41 42 42 44 44 48 40 42 47 44
33 30 29 29 27 25 30 31 28 28 25 25 24 24 24 26 26 28 31 30 30 32 34 35 35 37 38 38 40 41 43 38 38 37 37 40 42 37 42 45 41 42 46
35 39 34 35 40 35 30 35 36 36 32 30 29 27 28 28 29 31 31 30 31 31 35 37 37 37 39 41 41 42 34 34 34 41 40 45 46 36 45 42 47 52 53
30 31 40 35 39 42 40 39 38 36 39 35 33 33 32 31 30 31 31 31 32 34 35 36 37 38 40 40 31 29 34 35 35 32 40 40 44 48 48 51 54 55 55
38 32 35 38 35 39 40 38 34 37 40 40 38 35 34 32 29 30 29 31 32 33 34 35 36 34 32 32 32 33 38 35 38 44 47 47 49 50 53 53 54 56 60
38 42 36 41 44 40 37 37 38 37 42 42 41 38 34 30 28 27 33 33 31 33 33 32 32 31 33 35 36 37 42 42 38 39 42 44 48 50 52 54 55 57 59
27 32 32 40 45 47 42 37 37 40 39 39 37 34 29 27 30 31 30 30 30 31 30 30 30 32 34 36 35 36 35 36 37 39 42 45 47 50 53 55 59 60 60
22 21 17 24 29 32 33 30 33 33 31 28 27 26 27 28 34 30 25 27 27 28 27 28 28 28 29 30 30 32 34 36 39 42 45 48 51 53 53 54 57 58 59
21 20 17 14 16 23 26 29 33 27 25 24 24 21 22 24 23 20 22 23 24 22 23 24 25 27 29 31 33 34 37 40 42 43 44 47 49 51 54 56 58 59 60
28 22 17 20 23 23 24 23 24 26 27 30 21 20 18 19 19 19 17 17 18 18 21 23 26 28 30 31 32 33 35 37 41 44 47 49 51 53 55 56 57 57 58

GFSMW_700_spd_093.txt.gz
Wind_Speed
15 17 15 17 18 10 10 12 6 9 5 5 5 10 7 23 35 38 44 54 47 38 38 33 36 34 32 29 26 23 21 7 13 13 11 11 12 12 12 13 14 15 16
19 17 13 12 12 9 3 11 10 9 8 4 5 6 10 25 21 44 50 47 41 46 40 38 38 36 37 36 35 28 24 20 16 12 15 16 16 15 15 18 17 18 21
18 16 11 8 7 7 4 7 9 8 8 7 10 13 13 20 25 39 46 42 39 47 49 50 46 44 39 40 36 23 32 21 16 17 19 17 16 15 18 16 20 23 23
19 17 10 6 5 4 4 8 10 12 10 10 11 13 11 9 14 25 27 30 33 50 56 58 44 40 40 36 39 33 27 21 26 22 21 20 20 20 19 25 26 26 28
19 17 10 6 3 1 3 4 6 14 15 14 10 14 13 16 15 15 17 18 22 28 38 46 51 38 43 38 38 31 27 24 26 24 24 23 24 25 27 28 27 34 37
21 19 11 7 4 1 0 2 3 6 18 20 17 18 13 17 19 18 22 24 21 17 21 34 45 40 33 35 38 36 35 31 31 28 31 29 30 30 29 31 31 33 33
20 19 13 10 6 4 2 2 3 5 7 14 17 18 18 19 17 15 17 21 24 23 27 34 37 41 40 38 37 35 35 33 34 33 34 36 36 35 34 36 40 40 42
17 21 16 13 10 8 5 4 4 5 8 9 10 11 15 15 19 19 18 20 23 21 18 27 36 38 38 43 43 39 38 37 38 37 39 40 40 42 42 43 45 47 51
14 19 20 14 12 11 8 6 6 7 7 8 11 12 11 10 13 17 18 21 20 24 27 25 28 34 31 33 35 38 38 39 37 39 42 45 46 45 47 50 51 52 56
16 17 21 17 11 11 11 10 9 9 10 9 9 10 11 11 10 11 13 16 18 20 24 26 30 27 29 32 32 35 36 37 36 39 40 42 45 49 55 59 58 58 59
19 20 22 20 16 12 12 13 12 12 11 12 12 11 12 12 12 11 12 14 15 18 20 21 22 24 25 26 28 30 31 35 37 39 41 46 49 46 51 51 56 49 48
18 22 24 24 23 21 18 14 16 15 14 14 14 14 15 14 15 14 15 15 15 16 16 18 19 22 23 25 28 29 31 35 38 40 43 44 49 47 45 38 37 48 49
12 19 24 24 23 29 25 19 19 19 18 17 17 19 19 19 18 19 19 20 20 20 21 22 23 24 25 27 29 31 34 37 40 42 45 47 44 45 38 38 42 41 47
7 15 22 21 19 22 29 21 21 23 24 25 25 24 23 24 24 23 23 23 22 23 23 23 23 25 27 30 32 35 38 39 41 41 42 43 43 41 41 45 45 45 47
13 14 21 22 21 20 23 24 23 22 22 23 25 27 28 26 26 27 28 28 28 26 25 26 27 27 29 32 36 39 39 41 43 43 43 43 44 44 44 45 46 48 51
21 15 17 21 24 22 23 24 22 21 20 19 20 23 25 28 27 28 27 29 29 29 32 34 34 35 37 38 38 38 39 39 41 42 44 46 47 48 48 50 52 50 58
21 21 20 16 23 26 27 28 24 26 24 21 20 20 22 22 22 23 24 26 30 33 32 32 35 39 41 38 36 36 39 41 43 45 46 48 48 47 48 45 50 51 52
20 21 19 26 33 32 26 32 33 29 29 27 25 22 22 21 22 25 27 28 30 31 30 31 33 36 38 39 39 39 42 43 45 47 47 44 44 48 43 43 46 44 41
29 27 22 25 26 28 29 26 29 28 30 33 31 29 29 28 29 29 30 31 32 34 35 35 35 37 40 40 42 41 42 43 44 42 38 42 37 39 41 42 43 43 44
38 38 38 38 40 35 35 34 39 30 33 36 39 37 36 34 34 33 33 33 34 35 35 37 38 39 40 41 40 40 43 42 38 38 40 41 42 38 42 47 48 51 51
40 41 39 37 42 45 42 39 44 48 42 44 42 44 42 40 39 38 37 35 34 34 34 36 36 37 38 39 39 37 35 36 37 37 43 46 47 45 44 45 48 51 53
39 44 46 43 42 43 41 46 42 45 52 48 44 48 43 46 43 41 40 37 35 33 33 36 37 38 37 37 37 35 36 38 38 39 44 46 45 45 47 48 51 54 57
25 27 32 43 50 48 41 40 43 40 40 42 44 43 43 46 47 40 37 35 35 33 32 35 36 35 35 36 35 38 39 40 39 38 40 42 44 47 50 52 53 54 56
23 19 22 29 34 41 44 43 42 43 39 42 43 43 46 42 39 37 35 31 29 30 32 40 33 30 31 33 32 33 34 35 37 39 40 42 44 45 48 52 55 57 59
24 22 19 17 22 28 34 38 39 40 38 39 37 36 35 34 32 28 27 26 28 31 33 28 25 26 28 29 32 34 36 36 35 37 40 43 46 47 50 52 55 56 58
27 27 22 17 20 20 22 27 29 30 29 31 32 30 32 30 24 30 31 24 21 19 20 22 24 27 30 31 31 29 30 33 36 40 42 45 46 47 49 51 52 53 53

GFSMW_700_spd_096.txt.gz
Wind_Speed
19 28 16 17 18 18 11 4 3 3 5 8 9 15 26 28 36 38 41 43 43 44 45 43 38 28 27 30 28 28 27 25 21 12 4 7 8 8 10 9 11 12 13
24 30 14 15 16 13 9 2 11 7 7 7 6 9 15 17 26 34 37 46 48 45 44 41 34 30 29 31 31 31 29 27 20 21 13 11 11 16 13 14 15 15 16
26 30 15 13 12 11 9 4 7 11 6 6 5 12 12 17 24 18 38 40 46 41 44 47 39 32 34 35 34 34 33 29 24 23 17 16 19 15 15 15 18 15 17
25 29 19 11 9 8 7 5 6 9 7 5 5 7 7 13 21 16 29 36 43 47 52 36 41 45 44 40 39 38 31 28 30 28 22 19 19 18 21 20 20 21 23
27 30 19 11 8 5 6 7 6 5 9 9 9 11 12 15 18 19 23 38 40 38 35 32 37 47 42 39 37 35 41 40 28 25 26 23 23 22 24 25 25 29 30
25 31 19 12 9 5 3 6 6 4 9 12 9 8 12 12 13 16 20 22 22 21 19 22 33 45 40 38 43 37 34 30 34 19 23 27 27 26 26 29 31 31 31
24 30 16 13 10 7 3 2 3 3 3 10 12 10 11 8 11 13 14 16 14 11 8 17 24 34 38 44 33 28 31 32 33 30 30 32 32 32 30 33 35 39 41
25 25 15 14 12 9 7 4 2 1 3 5 8 10 9 9 12 12 12 11 10 12 11 14 17 32 34 28 30 35 33 30 34 30 34 34 35 34 35 37 41 46 49
22 21 20 15 13 10 8 7 6 5 5 6 6 6 7 8 8 11 15 15 15 14 14 12 19 21 28 30 35 36 31 32 33 34 36 34 36 37 37 38 42 45 53
16 20 22 15 14 11 11 9 7 8 8 8 8 8 8 8 8 10 10 11 12 17 20 20 18 21 25 25 23 25 29 32 32 33 31 33 35 35 35 40 45 49 50
17 22 21 15 17 12 10 11 9 8 7 8 8 8 9 9 8 8 10 11 12 14 15 17 20 20 18 17 21 25 29 29 30 30 32 33 34 35 37 41 43 47 46
13 19 20 22 17 16 14 11 10 10 8 8 10 10 11 12 11 11 11 11 11 12 13 13 14 16 18 21 26 26 27 28 28 29 32 33 35 37 39 40 44 46 43
6 13 18 24 21 20 20 18 16 14 12 12 12 13 14 14 14 13 13 13 13 13 14 14 15 17 20 22 24 26 27 28 29 31 34 35 37 38 40 42 44 45 40
0 8 15 22 26 23 18 23 24 20 20 18 17 17 17 17 18 18 18 18 18 18 18 19 20 21 22 24 25 26 27 28 30 33 35 37 40 41 42 41 44 45 46
6 6 11 18 25 29 24 19 23 24 23 24 23 22 22 22 21 22 22 21 22 22 23 23 23 24 24 28 27 27 27 28 32 35 36 39 37 40 41 44 45 45 48
12 13 14 14 22 24 24 20 20 22 21 22 20 20 20 22 23 25 24 24 25 25 26 26 27 29 30 29 28 30 32 34 36 34 36 38 42 45 45 45 48 43 48
19 15 14 22 15 23 24 24 22 23 22 22 20 18 18 20 22 24 25 26 27 27 30 30 30 31 33 33 32 34 37 35 34 38 40 42 45 45 46 48 44 49 49
22 22 24 11 17 20 20 23 22 27 28 26 26 24 22 19 21 23 25 27 25 25 26 29 32 34 34 32 33 34 36 36 36 39 40 44 42 46 48 49 46 47 40
29 24 30 28 27 23 22 25 30 30 33 34 31 31 28 25 25 27 27 26 27 29 30 31 33 35 36 36 35 36 37 38 39 39 40 44 48 47 44 40 40 39 41
37 29 27 33 31 31 26 23 31 30 29 27 33 32 35 32 31 32 32 32 32 33 34 35 36 37 38 39 38 34 37 38 40 42 44 43 37 40 42 41 48 52 51
39 33 34 35 38 36 34 32 32 36 34 33 32 33 37 38 41 39 37 39 39 39 39 38 38 38 38 39 37 36 37 40 40 35 35 38 39 39 43 47 47 46 47
35 41 39 41 46 44 42 39 35 34 32 34 37 43 44 42 41 46 47 47 46 43 41 41 39 37 37 36 37 38 33 29 30 33 36 40 41 41 42 44 46 46 47
32 38 36 33 33 39 39 38 37 36 35 33 37 42 48 50 50 51 51 47 42 44 40 37 37 35 36 36 30 30 35 38 36 35 33 36 39 42 43 42 44 46 49
24 32 30 28 26 31 34 35 37 39 40 38 39 44 47 50 48 47 45 41 41 47 45 36 33 30 28 29 29 27 28 29 32 35 37 37 36 38 42 45 47 49 50
25 19 27 24 24 24 29 33 37 37 38 38 40 40 41 41 41 40 36 35 36 38 35 25 25 27 23 20 23 27 29 31 32 31 33 36 38 40 42 43 45 48 49
31 22 21 30 30 26 22 22 26 28 28 28 31 31 32 33 35 35 38 44 41 27 25 23 20 18 20 24 27 27 26 26 29 32 34 36 37 39 41 42 43 44 44

GFSMW_700_spd_099.txt.gz
Wind_Speed
28 26 26 26 18 18 18 11 2 2 6 8 11 13 19 24 27 35 40 43 41 40 39 34 35 36 37 33 31 31 30 30 27 23 20 15 9 5 6 8 8 9 9
28 30 24 24 18 16 15 11 4 7 5 10 13 12 13 23 35 39 34 44 38 39 40 38 38 40 39 38 34 33 32 30 28 26 23 12 24 12 9 11 12 12 13
33 29 21 21 19 15 14 11 5 6 7 9 10 12 14 19 31 37 36 43 43 43 36 43 40 39 39 31 34 31 29 30 30 26 18 17 21 19 17 16 14 13 15
28 23 22 22 19 13 11 10 8 5 7 9 10 12 12 17 27 34 32 33 39 43 40 38 46 36 35 30 34 32 32 32 30 25 22 23 27 20 18 15 15 15 16
31 28 31 24 20 12 10 8 6 6 3 9 7 10 18 17 19 24 24 35 40 40 38 41 36 42 39 38 40 39 36 34 34 32 30 30 30 26 22 21 19 22 21
30 25 25 24 19 12 9 6 6 4 2 10 8 5 7 17 19 18 18 28 31 29 40 41 34 44 28 42 42 37 40 37 38 34 32 29 24 27 24 23 23 24 25
25 28 26 21 18 11 9 4 5 3 2 10 10 5 7 5 11 18 23 27 30 32 34 29 34 37 35 41 44 39 38 41 38 34 30 26 22 26 28 29 28 32 31
19 26 25 15 17 11 8 4 3 2 2 6 11 10 10 8 10 14 17 15 28 31 24 18 28 24 19 28 40 39 39 43 39 32 27 26 29 29 29 30 30 34 37
17 15 14 12 16 12 9 6 4 2 2 3 5 8 10 11 8 15 16 23 24 21 17 14 16 21 23 30 37 37 40 26 24 22 23 30 33 30 31 31 32 35 43
12 14 14 12 15 12 12 10 8 6 4 4 5 5 6 6 9 13 18 19 26 26 20 17 16 16 23 30 34 29 27 28 25 24 27 30 31 30 29 30 32 34 41
16 15 11 9 11 13 12 11 11 8 7 7 5 5 5 7 8 9 9 13 20 25 28 24 19 20 23 25 30 27 24 26 25 25 27 27 27 27 31 32 33 35 39
14 21 15 12 11 13 13 11 11 11 10 10 9 7 7 6 7 9 11 10 12 14 16 18 21 24 22 26 25 23 22 22 23 23 26 27 29 30 31 33 34 36 36
7 17 15 14 14 13 14 16 14 12 12 11 10 10 9 9 7 8 7 9 11 13 15 15 16 17 19 20 20 21 22 23 25 26 29 31 32 29 29 34 35 39 40
10 16 21 12 15 14 14 14 19 20 16 13 12 12 12 12 13 12 12 12 13 13 14 15 16 18 19 21 22 24 25 24 26 28 29 29 30 30 34 32 36 39 39
3 5 11 11 14 17 20 19 19 17 25 21 17 17 18 17 18 18 18 18 18 18 18 19 20 20 21 22 22 23 25 28 29 29 28 30 33 34 32 36 37 36 46
11 5 9 6 16 21 20 19 19 18 18 24 21 19 20 20 20 20 20 21 22 22 22 22 23 24 24 24 24 25 27 29 31 34 35 37 36 33 36 38 42 45 46
15 22 17 11 13 21 28 20 20 21 19 21 23 20 19 20 20 20 22 23 23 24 26 27 27 28 28 27 27 29 31 32 35 37 41 38 39 46 45 41 41 51 40
21 18 18 19 13 14 20 26 25 23 24 23 24 24 21 20 21 21 21 23 26 27 28 28 29 29 29 28 30 32 34 35 40 40 37 42 44 50 51 40 40 47 52
31 29 24 24 24 19 20 18 27 32 24 23 25 27 28 27 25 24 22 23 25 27 29 29 30 32 33 33 33 35 37 39 35 37 43 45 50 49 43 39 50 50 41
37 35 36 30 25 26 26 27 24 26 30 29 32 28 31 33 33 29 27 26 28 29 31 33 35 36 38 39 38 37 35 37 40 42 47 46 39 39 44 46 43 42 39
33 30 36 40 38 32 29 34 30 24 31 33 33 30 29 34 39 37 29 27 38 39 36 38 38 39 39 39 38 39 42 43 44 45 38 36 41 43 39 40 41 42 39
33 36 35 35 39 43 41 37 38 34 32 32 33 32 32 32 33 35 36 37 39 42 38 40 38 38 39 41 44 48 48 44 39 35 39 39 36 35 37 36 36 36 36
30 35 39 39 38 36 40 44 45 45 44 39 37 34 31 33 36 40 43 41 44 43 42 39 44 47 44 48 48 47 34 31 28 31 30 31 32 33 32 32 34 37 40
25 30 35 36 35 32 29 30 31 37 42 42 38 38 38 37 40 42 43 43 42 46 43 44 47 50 50 46 37 30 21 19 20 25 28 29 29 29 32 36 37 39 41
24 29 29 30 33 27 25 24 23 29 37 40 39 39 39 38 43 39 39 42 41 41 44 49 47 36 32 18 15 14 19 22 27 29 28 28 30 31 33 35 37 39 40
25 27 25 24 21 22 21 20 19 20 26 30 33 37 38 42 45 44 44 41 42 45 41 34 29 22 13 11 16 19 23 25 26 25 25 26 28 30 32 34 36 37 39

GFSMW_700_spd_102.txt.gz
Wind_Speed
30 29 26 27 20 17 23 22 19 13 9 8 9 10 12 17 14 20 40 47 43 48 43 37 37 39 37 37 37 35 33 34 32 29 27 22 18 15 11 7 9 9 9
34 34 30 28 19 17 21 21 17 14 14 10 10 10 13 20 18 28 42 43 41 50 42 38 37 38 39 39 40 38 36 34 33 29 26 25 23 20 11 17 15 12 12
32 31 35 28 20 16 20 20 17 13 14 12 12 11 12 19 24 29 29 51 36 43 44 39 37 39 39 38 40 38 35 33 32 30 27 27 18 9 13 18 17 16 14
34 35 27 28 21 17 20 18 17 12 12 14 11 12 12 18 32 32 30 40 39 46 44 42 37 38 38 40 39 36 33 31 32 32 28 25 20 13 14 22 20 16 14
25 34 28 25 22 17 17 15 15 11 9 11 8 7 8 14 25 36 37 38 35 38 37 43 44 43 45 40 36 35 34 33 32 26 31 28 19 19 26 25 22 21 19
33 29 26 27 19 21 17 12 13 9 6 12 8 6 6 9 18 24 35 37 38 41 41 39 38 40 37 39 38 38 35 35 31 31 36 29 25 29 22 23 24 24 22
32 27 28 25 19 21 16 10 10 5 3 11 11 9 11 12 14 19 22 36 36 38 35 41 35 37 33 43 48 36 45 38 37 37 38 34 36 33 23 22 24 26 27
23 28 28 23 19 19 15 10 7 3 2 7 12 10 11 12 14 24 17 23 26 37 35 32 32 51 31 34 41 31 41 40 41 40 41 38 35 26 25 22 26 29 31
17 20 20 23 18 17 16 12 10 6 5 6 9 10 10 10 8 15 20 27 27 31 37 36 27 37 37 33 41 31 33 41 39 35 37 33 32 28 29 28 28 31 35
16 15 13 16 17 18 17 15 12 9 8 7 6 7 7 8 8 13 16 20 27 23 40 34 23 21 24 25 26 28 34 38 39 35 30 25 23 24 28 30 31 35 35
25 25 9 10 13 20 18 15 13 10 7 8 8 6 6 5 5 7 13 17 22 22 30 28 21 17 22 30 27 23 30 34 33 35 30 26 26 28 28 31 35 35 36
8 34 24 8 8 20 18 14 13 10 9 9 7 8 8 9 9 9 10 15 22 26 34 33 28 24 23 25 27 27 29 32 32 31 30 30 30 28 30 32 34 36 36
14 20 32 27 15 13 20 17 14 12 11 10 9 8 7 8 10 10 11 11 13 15 22 24 26 29 27 29 28 28 28 31 30 29 30 32 33 32 31 32 33 32 34
18 16 19 32 27 21 15 17 16 16 15 13 11 9 7 7 10 12 13 13 13 14 15 16 16 17 19 21 23 25 26 28 29 31 33 33 31 31 30 30 33 37 36
13 12 8 23 28 26 23 20 16 14 13 21 17 14 13 14 13 15 15 16 17 18 19 19 20 21 22 21 22 25 27 30 31 32 32 31 30 29 30 33 37 41 43
10 4 9 8 19 21 21 21 21 18 15 14 20 24 21 19 19 19 19 20 20 21 22 24 25 25 26 27 28 30 31 32 32 32 33 34 35 36 39 41 44 43 47
11 15 2 7 2 9 20 21 21 19 15 16 18 21 26 24 23 23 23 23 24 24 26 27 27 27 27 28 29 30 31 32 33 34 35 38 42 39 39 42 42 50 51
17 17 20 11 11 11 15 20 23 25 24 21 17 17 23 24 25 27 27 27 28 29 29 29 29 29 28 27 28 29 32 34 36 38 40 40 43 42 48 49 56 51 56
19 23 25 27 24 16 15 16 19 21 27 27 24 18 18 23 26 27 29 30 30 32 31 30 31 31 30 30 32 34 37 37 38 39 42 45 52 51 53 60 56 51 53
23 23 29 32 35 35 30 22 19 22 25 25 34 31 24 21 23 25 28 32 32 33 34 33 34 34 34 35 35 36 35 35 42 47 51 51 52 57 67 51 52 40 38
25 30 33 33 31 32 41 36 31 26 25 29 30 31 31 28 24 20 27 31 34 35 32 32 33 35 37 38 37 37 37 43 49 50 55 59 61 50 46 39 34 31 31
21 23 26 28 30 32 34 37 42 40 35 29 28 29 32 29 36 31 25 23 26 34 37 36 35 41 43 45 47 50 48 49 52 56 57 47 42 28 21 25 31 34 35
22 24 24 25 29 31 33 34 39 39 42 42 38 34 34 32 32 27 28 27 29 30 34 42 41 48 47 50 58 56 56 51 55 40 31 23 22 25 31 32 30 31 32
22 24 24 26 29 31 31 31 31 38 39 39 40 40 36 37 38 32 29 27 30 34 35 40 44 50 49 52 55 55 40 33 19 14 17 21 24 26 27 27 27 30 32
18 19 21 26 29 35 36 31 28 29 34 35 35 35 36 37 37 37 35 34 35 33 52 40 57 55 49 45 27 18 10 10 15 20 22 24 25 25 23 26 29 32 34
17 19 18 24 30 35 34 24 22 26 28 28 30 32 33 35 34 33 36 34 34 43 50 46 35 32 24 15 10 11 14 16 19 20 19 20 22 23 25 27 29 31 32

GFSMW_700_spd_108.txt.gz
Wind_Speed
28 26 26 23 22 20 22 21 22 24 25 27 23 22 18 19 18 19 17 17 22 29 35 52 39 47 46 45 38 39 37 35 33 29 27 25 23 21 19 17 15 13 12
30 27 29 26 23 19 21 23 23 24 25 28 23 24 20 21 21 20 16 16 15 21 35 42 42 41 41 51 45 43 42 38 34 32 28 28 26 23 20 19 17 14 10
31 23 28 23 21 21 24 25 27 24 25 27 23 23 20 21 21 23 21 19 21 19 34 35 34 45 49 49 44 43 40 38 36 33 31 29 27 24 23 20 17 13 8
36 32 29 25 23 22 23 24 26 24 24 26 22 24 19 20 21 24 23 22 21 20 36 36 43 47 47 45 45 44 41 37 33 32 31 28 24 24 22 20 15 14 10
35 36 29 24 27 26 26 25 21 22 23 24 22 23 16 18 20 24 24 19 23 27 42 42 43 42 41 43 43 42 39 36 33 31 30 28 26 25 23 16 14 13 18
29 38 31 29 25 17 21 22 21 21 22 19 21 19 14 15 17 19 20 18 18 31 51 47 44 42 39 39 38 39 36 34 31 31 30 27 29 26 24 21 25 24 21
25 28 37 32 29 19 20 23 21 19 20 17 18 15 13 13 12 13 15 11 25 32 53 50 46 43 40 37 39 38 37 34 33 34 32 28 29 28 30 33 39 24 32
21 24 34 32 31 28 23 23 19 18 17 15 15 14 12 12 10 7 14 14 19 37 37 50 45 45 46 45 40 39 41 37 36 37 34 31 33 34 36 37 26 30 33
21 21 32 32 32 34 27 24 20 17 15 12 11 11 10 10 11 7 9 19 15 41 23 41 36 44 47 47 51 48 43 43 50 38 40 43 44 38 39 33 33 37 41
20 22 24 30 33 37 32 25 21 19 14 9 6 7 8 10 9 9 9 16 20 28 32 25 26 27 21 29 36 39 43 53 49 49 51 48 46 44 40 37 35 34 37
19 13 16 15 28 33 29 25 23 21 14 8 5 6 6 7 8 8 8 14 16 22 29 26 26 30 21 20 24 27 27 23 35 39 42 43 32 42 43 36 34 37 26
14 9 4 11 20 27 28 25 25 21 16 11 8 6 6 5 5 6 6 8 12 19 21 30 28 34 33 29 14 35 36 18 31 32 47 39 29 34 42 38 39 37 28
8 15 3 12 17 27 28 24 24 22 17 15 12 9 8 7 6 4 3 5 6 10 19 26 24 21 31 29 14 21 36 26 30 28 36 38 36 31 37 45 34 36 32
8 20 12 1 10 26 27 24 25 23 20 18 16 13 11 10 9 9 7 5 6 7 9 15 25 31 23 35 28 19 26 21 30 30 28 33 35 35 38 36 39 40 36
14 11 18 18 6 18 26 22 23 22 22 21 19 16 14 13 12 12 10 9 9 9 8 7 7 18 24 32 25 29 26 26 29 33 30 30 34 37 40 43 42 41 41
13 6 9 7 15 5 19 24 21 20 21 22 21 19 18 17 15 14 14 13 13 12 12 13 13 12 14 22 27 32 32 30 30 31 32 36 39 40 45 46 42 44 45
8 14 20 10 7 6 2 31 27 15 18 22 21 18 21 21 20 20 19 18 17 17 17 17 18 19 21 22 25 26 26 28 30 32 35 37 37 38 40 42 45 46 45
6 9 10 14 16 10 7 9 41 28 16 18 23 18 16 18 17 19 23 23 23 22 22 22 22 23 25 27 29 30 32 32 33 35 37 39 40 42 43 44 45 46 45
9 9 6 6 10 7 7 9 7 16 35 27 24 38 25 27 28 21 19 21 28 28 28 28 28 28 28 30 31 34 34 36 38 40 41 41 42 43 44 45 42 42 45
9 9 11 12 17 17 18 19 17 15 15 16 20 20 22 30 30 29 36 32 21 30 33 34 34 33 34 34 35 37 39 41 42 41 43 42 40 40 45 43 48 50 55
10 12 15 14 14 14 14 16 18 19 20 22 24 25 25 23 30 33 30 33 42 29 28 37 37 36 35 36 37 38 40 41 41 38 41 40 43 46 47 54 54 59 56
10 11 12 12 12 10 11 12 12 15 20 23 25 26 30 31 29 28 38 38 34 27 38 39 28 29 30 30 29 32 38 38 37 42 43 43 45 55 58 60 49 26 19
11 11 9 10 11 9 8 10 14 16 17 16 22 27 30 36 35 32 27 31 38 40 42 38 36 42 43 35 42 45 40 32 40 47 50 54 50 51 35 18 17 21 25
11 12 13 13 12 10 10 11 10 11 15 18 21 23 27 31 36 38 35 30 33 38 37 31 30 38 35 32 39 46 51 39 44 48 52 42 40 31 23 22 24 23 22
12 12 13 13 15 16 14 15 14 13 12 12 15 21 26 28 33 35 35 32 31 35 37 38 35 34 34 37 41 40 48 48 41 36 27 20 19 21 21 20 18 17 18
13 14 14 13 14 13 15 16 17 17 17 17 15 14 22 26 28 31 31 32 33 35 37 41 44 44 45 44 41 36 32 25 22 19 19 19 19 17 14 13 13 15 17

GFSMW_700_spd_114.txt.gz
Wind_Speed
28 27 30 30 28 28 27 28 27 30 29 28 25 23 23 22 21 20 18 19 22 23 23 25 37 40 40 37 33 29 36 33 35 36 34 30 28 25 24 24 23 21 20
29 29 31 33 29 30 29 30 26 30 29 27 25 24 24 22 22 22 21 21 23 27 25 28 34 37 44 42 38 36 35 36 37 38 35 34 30 28 24 24 24 20 21
30 32 32 33 33 30 30 31 31 30 28 25 26 25 23 23 23 22 21 20 24 27 29 28 37 36 47 47 41 43 38 37 38 39 37 35 32 28 25 24 23 22 21
30 29 28 32 35 34 33 33 32 30 30 27 26 25 23 22 23 24 20 21 24 24 30 34 31 27 46 51 40 42 44 41 38 38 36 36 34 29 27 25 24 24 22
21 22 24 27 33 36 33 32 30 30 29 28 26 24 24 23 24 24 18 19 25 27 28 32 34 34 46 45 44 49 48 42 40 40 39 36 32 28 25 23 22 23 21
11 12 14 22 28 33 32 33 31 30 30 31 29 25 22 22 24 21 17 19 23 25 30 33 33 35 41 49 47 50 45 44 43 36 33 32 31 30 27 22 22 21 23
10 10 10 18 23 27 28 35 33 30 29 33 29 24 21 21 22 18 18 19 22 25 30 28 30 36 36 46 56 49 49 38 38 35 34 32 29 31 28 23 23 24 27
5 5 7 11 14 18 24 35 33 27 27 28 26 23 21 20 19 17 16 19 21 17 20 23 25 30 34 41 48 49 48 36 37 37 33 32 32 31 30 26 27 26 30
11 15 15 13 12 16 21 30 35 31 26 26 27 22 19 18 17 15 15 17 16 15 17 24 25 29 34 34 43 51 52 43 39 36 33 33 33 34 34 32 28 30 30
17 15 16 17 16 14 19 27 35 35 29 27 26 21 18 16 16 13 15 13 10 11 16 15 29 28 31 40 38 35 40 40 41 36 37 39 39 41 38 36 36 33 34
14 14 22 22 19 15 16 24 34 36 31 31 26 21 16 15 15 13 14 11 10 14 15 17 28 30 32 32 30 35 39 42 41 40 41 42 40 44 45 43 46 42 43
13 20 19 21 19 16 17 23 29 35 33 30 26 21 17 15 15 13 12 10 10 11 15 16 26 28 29 34 42 37 35 38 36 38 41 45 45 50 55 56 48 46 50
11 16 19 20 19 18 17 20 28 32 33 30 24 21 17 15 15 13 11 10 11 13 13 23 24 21 20 35 28 41 39 39 44 45 37 30 38 45 46 41 44 42 46
9 13 16 15 17 13 9 17 21 25 31 29 25 24 20 17 16 13 11 9 11 12 13 18 31 24 22 18 19 28 21 17 19 22 31 30 28 38 43 47 44 42 40
8 8 9 6 10 12 12 15 21 28 28 25 29 25 21 20 19 15 12 9 9 11 14 17 20 25 28 32 27 26 35 25 20 22 30 30 21 23 27 21 30 36 40
4 3 8 8 10 14 17 19 24 29 27 31 28 23 23 21 20 17 15 13 10 10 10 12 17 25 28 27 29 24 36 30 17 18 25 32 30 23 26 27 33 31 35
4 5 6 4 8 6 5 17 24 28 33 32 25 24 23 22 21 19 18 16 13 12 11 11 10 10 15 25 28 28 25 32 34 27 20 21 27 30 33 32 35 31 32
7 4 6 5 8 6 6 9 15 17 18 26 26 26 25 23 22 22 20 18 16 14 13 12 12 12 12 11 16 26 30 29 27 29 27 29 28 32 35 35 33 34 33
9 9 9 10 11 12 11 9 11 13 16 21 22 21 21 22 24 20 18 17 16 17 17 17 16 15 15 15 15 17 26 31 32 29 31 31 33 33 38 36 33 35 39
11 11 12 14 15 13 11 12 15 14 7 6 16 18 19 19 21 22 21 19 14 14 17 20 22 22 21 20 20 21 24 27 29 31 33 35 37 35 36 39 37 36 39
10 11 11 13 13 12 10 10 12 7 14 15 12 23 20 18 23 21 21 25 30 24 25 25 23 23 25 25 25 26 26 28 31 34 36 37 37 38 36 37 38 41 45
4 7 8 9 10 10 9 9 7 9 12 14 14 14 21 21 20 19 26 32 29 28 28 29 27 24 25 26 26 25 26 29 31 35 36 36 36 35 38 44 46 48 50
4 6 7 8 9 10 10 9 10 8 9 12 15 14 22 23 26 29 28 31 26 25 28 31 32 31 30 29 28 28 30 32 33 36 38 33 36 43 44 45 49 49 51
5 6 7 9 7 9 9 10 11 13 11 10 13 16 20 23 28 33 36 36 35 34 36 36 35 33 33 33 30 31 32 40 39 36 41 44 45 45 49 47 43 37 25
8 8 7 7 8 10 7 7 7 9 13 14 13 13 16 20 26 30 34 35 37 41 39 32 32 34 35 34 36 42 42 44 42 45 41 44 42 41 38 34 26 23 22
9 9 9 7 7 8 9 6 6 6 8 10 11 12 13 15 18 24 30 33 35 34 31 35 34 32 34 36 39 42 35 35 33 28 29 32 28 26 24 23 21 21 21

GFSMW_700_spd_120.txt.gz
Wind_Speed
27 27 25 30 36 32 32 39 43 44 35 30 30 29 30 28 27 21 22 23 21 20 21 20 22 24 29 28 28 27 26 25 29 33 35 28 26 29 25 26 21 20 22
25 25 27 29 30 31 35 39 43 45 37 32 31 29 32 28 28 26 25 24 22 23 23 23 23 26 27 29 31 32 32 30 31 28 38 32 31 31 29 27 23 22 23
32 34 33 32 33 35 39 43 43 38 36 34 35 31 30 31 32 29 26 24 23 24 24 26 25 27 29 29 31 33 39 36 33 36 37 37 39 35 31 27 25 23 22
33 31 29 30 31 34 39 42 41 40 38 36 33 31 32 34 32 29 26 26 25 26 27 27 25 28 30 29 31 28 39 40 40 36 40 33 36 32 32 29 26 25 24
35 34 31 29 31 34 39 43 39 37 42 35 32 31 32 31 31 29 28 29 27 27 27 27 25 28 30 32 32 28 38 38 42 42 40 36 36 32 27 29 27 27 26
29 29 28 26 25 28 30 33 32 30 40 36 32 31 33 31 33 31 30 28 29 29 28 26 25 27 31 32 36 30 38 33 41 40 38 36 38 30 31 28 26 24 23
18 16 12 18 23 30 31 33 32 30 36 35 33 32 34 34 33 31 30 30 30 30 28 26 27 27 29 31 31 36 36 41 44 47 42 39 34 34 27 27 24 23 25
17 17 18 20 22 25 25 26 29 31 38 30 31 33 34 34 32 30 30 31 29 29 28 28 29 29 33 33 34 32 35 38 39 47 45 38 38 40 35 24 22 23 22
16 19 17 9 13 14 15 20 23 29 31 29 32 34 31 31 32 32 30 31 28 28 26 29 31 32 34 32 36 35 38 34 46 49 45 46 41 44 34 31 28 27 28
17 19 10 9 11 16 17 18 19 24 27 30 32 33 32 32 33 31 31 30 28 26 28 29 30 33 28 26 30 40 36 34 37 51 52 49 47 44 36 36 36 30 29
25 14 10 10 10 11 17 18 20 21 25 27 31 33 34 31 32 31 31 29 26 26 28 28 29 27 21 24 31 36 38 36 41 41 58 51 45 41 42 39 36 33 33
22 14 11 10 12 13 15 18 21 21 24 27 29 33 33 31 31 32 30 27 25 26 26 25 25 24 26 24 26 38 35 33 35 37 53 48 47 43 38 38 37 38 33
23 15 10 9 9 12 15 17 19 20 23 27 27 31 33 33 31 31 29 25 24 23 23 23 22 20 18 19 21 28 30 29 32 37 35 46 43 44 38 32 37 34 37
13 9 6 8 9 10 11 13 11 13 19 25 29 31 32 33 34 33 29 25 22 21 20 20 19 14 15 12 18 13 23 26 23 25 32 43 42 37 34 35 38 36 35
16 9 5 7 10 12 11 9 10 10 13 19 26 31 33 35 36 32 28 24 20 19 19 17 13 9 8 6 8 11 14 23 24 30 40 32 43 35 39 39 31 40 39
20 8 3 7 10 11 11 11 10 11 15 19 23 28 31 35 34 31 27 24 17 21 17 13 9 9 9 14 8 5 10 7 18 30 32 38 35 38 39 37 40 43 47
15 7 4 6 9 11 11 12 12 13 20 21 25 27 32 36 36 32 29 22 21 23 17 12 8 7 8 15 14 11 9 8 12 16 23 25 30 31 33 40 46 44 37
6 4 3 4 8 11 12 12 12 13 14 20 25 28 29 35 33 32 26 25 27 25 19 14 11 10 9 11 15 13 17 19 17 20 22 20 23 21 23 25 27 31 28
7 4 5 7 11 12 14 14 14 15 15 16 23 30 33 33 33 32 28 27 31 26 22 19 16 13 12 13 16 16 20 18 23 25 27 25 22 26 19 24 25 28 34
5 4 6 10 13 14 15 15 15 14 14 13 17 18 34 34 31 33 28 31 33 29 26 22 19 16 15 16 17 18 19 18 21 26 29 30 34 31 31 30 29 32 32
2 5 9 11 12 12 13 13 13 13 12 14 14 14 21 38 31 31 35 33 34 30 27 24 23 21 20 18 17 17 18 18 23 30 33 34 30 32 36 38 34 34 39
3 6 7 8 9 11 11 12 13 13 13 12 14 15 16 21 22 29 31 34 37 33 33 25 25 27 25 22 21 21 22 23 23 24 26 27 28 33 34 35 35 35 36
4 5 7 7 9 9 9 11 11 12 12 13 13 14 16 16 13 28 39 30 34 33 32 30 37 28 27 24 23 25 25 28 29 29 30 30 32 30 31 34 37 39 41
5 6 6 7 8 8 9 10 9 10 11 11 11 15 15 14 11 11 19 14 32 27 30 32 32 29 27 26 29 26 28 31 31 31 31 33 33 37 37 39 40 41 45
7 7 8 8 9 10 10 10 9 9 8 9 8 10 12 13 12 8 5 21 17 12 23 25 25 30 25 23 29 23 33 23 27 32 31 36 41 40 40 41 42 40 34
8 8 8 8 9 9 10 10 10 9 9 9 9 8 9 11 9 8 12 12 4 10 12 15 23 22 23 24 24 23 22 24 26 27 28 22 23 23 22 24 21 22 23